Weather History for Puyallup, WA

Change the Weather History Date:

Wednesday, February 27, 2013

  Actual Average (KTCM) Record (KTCM)
Temperature  
Mean Temperature 44 °F -  
Max Temperature 50 °F 48 °F 72 °F (1986)
Min Temperature 37 °F 30 °F 16 °F (1962)
Degree Days  
Heating Degree Days 22    
Moisture  
Dew Point 41 °F    
Average Humidity 91    
Maximum Humidity 100    
Minimum Humidity 71    
Precipitation  
Precipitation 0.05 in - - ()
Sea Level Pressure  
Sea Level Pressure 30.26 in    
Wind  
Wind Speed 2 mph (SSW)    
Max Wind Speed 8 mph    
Max Gust Speed -    
Visibility 9 miles    
Events Rain    
Averages and records for this station are not official NWS values.
T = Trace of Precipitation, MM = Missing Value Source: NWS Daily Summary

Daily Weather History Graph

Daily Weather History Graph

Search for Another Location

Airport:

Trip Planner

Search our weather history database for the weather conditions in past years. The results will help you decide how hot, cold, wet, or windy it might be!

Date:

Astronomy

Feb. 27, 2013 Rise Set
Actual Time 6:52 AM PST 5:52 PM PST
Civil Twilight 6:21 AM PST 6:22 PM PST
Nautical Twilight 5:46 AM PST 6:58 PM PST
Astronomical Twilight 5:10 AM PST 7:33 PM PST
Moon 8:33 PM PST (2/27) 7:19 AM PST (2/27)
Length of Visible Light 12h 01m
Length of Day
10h 59m
Waning Gibbous, 96% of the Moon is Illuminated
Feb 27
Waning Gibbous
Mar 4
Last Quarter
Mar 11
New
Mar 19
First Quarter
Mar 27
Full

Hourly Weather History & Observations

Time (PST) Temp. Windchill Dew Point Humidity Pressure Visibility Wind Dir Wind Speed Gust Speed Precip Events Conditions
12:15 AM 42.8 °F 39.3 °F 35.6 °F 76% 30.20 in 7.0 mi SW 5.8 mph - N/A Rain Light Rain
12:35 AM 42.8 °F 40.1 °F 35.6 °F 76% 30.21 in 10.0 mi South 4.6 mph - N/A   Overcast
12:55 AM 42.8 °F 38.0 °F 35.6 °F 76% 30.21 in 10.0 mi South 8.1 mph - N/A   Overcast
1:15 AM 42.8 °F 38.6 °F 35.6 °F 76% 30.21 in 10.0 mi SSW 6.9 mph - N/A   Overcast
1:35 AM 42.8 °F 38.0 °F 35.6 °F 76% 30.22 in 8.0 mi SSW 8.1 mph - N/A Rain Light Rain
1:55 AM 41.0 °F - 37.4 °F 87% 30.22 in 10.0 mi Calm Calm - N/A   Mostly Cloudy
2:15 AM 41.0 °F - 39.2 °F 93% 30.23 in 10.0 mi Calm Calm - 0.01 in   Overcast
2:35 AM 41.0 °F - 39.2 °F 93% 30.24 in 10.0 mi Calm Calm - 0.01 in   Overcast
2:55 AM 41.0 °F - 39.2 °F 93% 30.25 in 10.0 mi Calm Calm - 0.01 in   Overcast
3:15 AM 39.2 °F - 39.2 °F 100% 30.25 in 10.0 mi Calm Calm - N/A   Overcast
3:35 AM 39.2 °F - 39.2 °F 100% 30.25 in 10.0 mi Calm Calm - N/A   Overcast
3:55 AM 39.2 °F - 39.2 °F 100% 30.25 in 10.0 mi Calm Calm - N/A   Overcast
4:15 AM 39.2 °F 37.0 °F 39.2 °F 100% 30.25 in 5.0 mi SSW 3.5 mph - N/A Rain Light Rain
4:35 AM 39.2 °F 35.0 °F 39.2 °F 100% 30.26 in 10.0 mi South 5.8 mph - N/A   Mostly Cloudy
4:55 AM 39.2 °F - 39.2 °F 100% 30.26 in 10.0 mi Calm Calm - 0.01 in   Mostly Cloudy
5:15 AM 39.2 °F - 39.2 °F 100% 30.27 in 10.0 mi Calm Calm - N/A   Mostly Cloudy
5:35 AM 39.2 °F - 39.2 °F 100% 30.28 in 10.0 mi Calm Calm - N/A   Scattered Clouds
5:55 AM 39.2 °F - 39.2 °F 100% 30.28 in 10.0 mi Calm Calm - N/A   Mostly Cloudy
6:15 AM 39.2 °F - 39.2 °F 100% 30.29 in 10.0 mi Calm Calm - N/A   Mostly Cloudy
6:35 AM 37.4 °F - 37.4 °F 100% 30.29 in 10.0 mi Calm Calm - N/A   Overcast
6:55 AM 39.2 °F - 39.2 °F 100% 30.30 in 10.0 mi Calm Calm - N/A   Overcast
7:15 AM 39.2 °F - 39.2 °F 100% 30.30 in 10.0 mi Calm Calm - N/A   Overcast
7:35 AM 39.2 °F - 39.2 °F 100% 30.30 in 10.0 mi Calm Calm - N/A   Overcast
7:55 AM 39.2 °F - 39.2 °F 100% 30.29 in 10.0 mi Calm Calm - N/A   Overcast
8:15 AM 41.0 °F - 41.0 °F 100% 30.29 in 10.0 mi Calm Calm - N/A   Overcast
8:35 AM 41.0 °F - 41.0 °F 100% 30.29 in 10.0 mi Calm Calm - N/A   Overcast
8:55 AM 42.8 °F - 41.0 °F 93% 30.28 in 10.0 mi Calm Calm - N/A   Overcast
9:15 AM 44.6 °F - 41.0 °F 87% 30.28 in 10.0 mi Calm Calm - N/A   Overcast
9:35 AM 44.6 °F - 41.0 °F 87% 30.27 in 10.0 mi Calm Calm - N/A   Overcast
9:55 AM 44.6 °F - 39.2 °F 81% 30.27 in 10.0 mi Calm Calm - N/A   Overcast
10:55 AM 46.4 °F - 39.2 °F 76% 30.28 in 10.0 mi Calm Calm - N/A   Overcast
11:15 AM 46.4 °F - 41.0 °F 81% 30.29 in 10.0 mi Calm Calm - N/A   Overcast
11:35 AM 46.4 °F - 39.2 °F 76% 30.30 in 10.0 mi Calm Calm - N/A   Overcast
11:55 AM 46.4 °F - 39.2 °F 76% 30.30 in 10.0 mi Calm Calm - N/A   Overcast
12:15 PM 48.2 °F - 41.0 °F 76% 30.29 in 10.0 mi Calm Calm - N/A   Mostly Cloudy
12:35 PM 48.2 °F - 41.0 °F 76% 30.29 in 10.0 mi Calm Calm - N/A   Mostly Cloudy
12:55 PM 48.2 °F - 41.0 °F 76% 30.28 in 10.0 mi Calm Calm - N/A   Mostly Cloudy
1:15 PM 50.0 °F - 41.0 °F 71% 30.28 in 10.0 mi Calm Calm - N/A   Scattered Clouds
1:35 PM 50.0 °F - 41.0 °F 71% 30.27 in 10.0 mi Calm Calm - N/A   Partly Cloudy
1:55 PM 50.0 °F - 41.0 °F 71% 30.26 in 10.0 mi North 3.5 mph - N/A   Partly Cloudy
2:15 PM 48.2 °F - 41.0 °F 76% 30.26 in 8.0 mi WNW 5.8 mph - N/A Rain Light Rain
2:35 PM 48.2 °F - 44.6 °F 87% 30.25 in 10.0 mi Calm Calm - N/A   Mostly Cloudy
2:55 PM 48.2 °F - 44.6 °F 87% 30.25 in 10.0 mi Calm Calm - N/A   Mostly Cloudy
3:15 PM 48.2 °F - 44.6 °F 87% 30.26 in 10.0 mi Calm Calm - N/A   Mostly Cloudy
3:35 PM 48.2 °F - 44.6 °F 87% 30.26 in 10.0 mi Calm Calm - N/A   Mostly Cloudy
3:55 PM 48.2 °F - 44.6 °F 87% 30.26 in 10.0 mi Calm Calm - N/A   Mostly Cloudy
4:15 PM 48.2 °F - 44.6 °F 87% 30.26 in 10.0 mi Calm Calm - N/A   Scattered Clouds
4:35 PM 48.2 °F - 44.6 °F 87% 30.26 in 10.0 mi Calm Calm - N/A   Partly Cloudy
4:55 PM 46.4 °F - 44.6 °F 93% 30.26 in 10.0 mi Calm Calm - N/A   Scattered Clouds
5:15 PM 46.4 °F - 44.6 °F 93% 30.25 in 10.0 mi Calm Calm - N/A   Mostly Cloudy
5:35 PM 46.4 °F - 44.6 °F 93% 30.24 in 10.0 mi Calm Calm - N/A   Scattered Clouds
5:55 PM 46.4 °F - 44.6 °F 93% 30.25 in 10.0 mi Calm Calm - N/A   Mostly Cloudy
6:15 PM 44.6 °F - 44.6 °F 100% 30.25 in 9.0 mi Calm Calm - N/A Rain Light Rain
6:35 PM 44.6 °F - 44.6 °F 100% 30.25 in 4.0 mi Calm Calm - 0.02 in Rain Light Rain
6:55 PM 44.6 °F - 44.6 °F 100% 30.25 in 7.0 mi Calm Calm - 0.03 in Rain Light Rain
7:15 PM 42.8 °F - 42.8 °F 100% 30.26 in 5.0 mi Calm Calm - N/A Rain Light Rain
7:35 PM 42.8 °F - 42.8 °F 100% 30.27 in 5.0 mi Calm Calm - N/A Rain Light Rain
7:55 PM 42.8 °F - 42.8 °F 100% 30.27 in 9.0 mi Calm Calm - N/A Rain Light Rain
8:15 PM 42.8 °F - 42.8 °F 100% 30.27 in 7.0 mi Calm Calm - N/A   Mostly Cloudy
8:35 PM 42.8 °F - 42.8 °F 100% 30.26 in 6.0 mi Calm Calm - N/A   Mostly Cloudy
8:55 PM 42.8 °F - 42.8 °F 100% 30.26 in 5.0 mi Calm Calm - N/A   Mostly Cloudy
9:35 PM 42.8 °F - 42.8 °F 100% 30.26 in 4.0 mi Calm Calm - N/A   Mostly Cloudy
9:55 PM 42.8 °F - 42.8 °F 100% 30.25 in 4.0 mi Calm Calm - N/A   Overcast
10:15 PM 42.8 °F - 42.8 °F 100% 30.26 in 3.0 mi Calm Calm - N/A   Mostly Cloudy
10:55 PM 42.8 °F - 42.8 °F 100% 30.26 in 1.2 mi Calm Calm - N/A   Overcast
11:15 PM 42.8 °F - 42.8 °F 100% 30.26 in 1.5 mi Calm Calm - N/A   Overcast
11:35 PM 42.8 °F - 42.8 °F 100% 30.25 in 2.5 mi Calm Calm - N/A   Overcast